EN

Hourly Weather Bystrzyca Gorna

Today, 28 February, Sunday

Time Temperature Precipitation Wind Pressure Humidity
00:00 +2°C° 0 mm 2 mps 749 mmHg 84%
01:00 +2°C° 0 mm 2 mps 749 mmHg 84%
02:00 +2°C° 0 mm 2 mps 749 mmHg 85%
03:00 +1°C° 0 mm 2 mps 749 mmHg 86%
04:00 +1°C° 0 mm 2 mps 748 mmHg 87%
05:00 +2°C° 0 mm 1 mps 748 mmHg 86%
06:00 +2°C° 0 mm 1 mps 748 mmHg 85%
07:00 +2°C° 0 mm 1 mps 748 mmHg 84%
08:00 +3°C° 0 mm 1 mps 748 mmHg 78%
09:00 +3°C° 0 mm 2 mps 748 mmHg 71%
10:00 +5°C° 0 mm 2 mps 748 mmHg 64%
11:00 +6°C° 0 mm 2 mps 748 mmHg 60%
12:00 +7°C° 0 mm 3 mps 748 mmHg 56%
13:00 +8°C° 0 mm 3 mps 748 mmHg 52%
14:00 +8°C° 0 mm 3 mps 747 mmHg 55%
15:00 +8°C° 0 mm 3 mps 747 mmHg 58%
16:00 +7°C° 0 mm 4 mps 746 mmHg 62%
17:00 +5°C° 0 mm 3 mps 746 mmHg 69%
18:00 +4°C° 0 mm 3 mps 746 mmHg 77%
19:00 +4°C° 0 mm 2 mps 747 mmHg 84%
20:00 +3°C° 0 mm 2 mps 747 mmHg 87%
21:00 +3°C° 0 mm 2 mps 747 mmHg 90%
22:00 +3°C° 0 mm 2 mps 747 mmHg 92%
23:00 +3°C° 0 mm 2 mps 747 mmHg 93%

Tomorrow, 1 March, Monday

Time Temperature Precipitation Wind Pressure Humidity
00:00 +2°C° 0 mm 2 mps 747 mmHg 93%
01:00 +2°C° 0 mm 2 mps 747 mmHg 94%
02:00 +3°C° 0 mm 1 mps 747 mmHg 94%
03:00 +3°C° 0 mm 1 mps 747 mmHg 95%
04:00 +2°C° 0 mm 1 mps 747 mmHg 95%
05:00 +2°C° 0 mm 1 mps 747 mmHg 95%
06:00 +2°C° 0 mm 1 mps 747 mmHg 95%
07:00 +2°C° 0 mm 1 mps 748 mmHg 95%
08:00 +4°C° 0 mm 1 mps 748 mmHg 88%
09:00 +4°C° 0 mm 0 mps 748 mmHg 81%
10:00 +6°C° 0 mm 0 mps 748 mmHg 74%
11:00 +7°C° 0 mm 0 mps 748 mmHg 69%
12:00 +8°C° 0 mm 0 mps 748 mmHg 64%
13:00 +9°C° 0 mm 0 mps 748 mmHg 60%
14:00 +9°C° 0 mm 0 mps 748 mmHg 60%
15:00 +10°C° 0 mm 1 mps 747 mmHg 60%
16:00 +10°C° 0 mm 1 mps 747 mmHg 61%
17:00 +9°C° 0 mm 1 mps 747 mmHg 67%
18:00 +6°C° 0 mm 0 mps 747 mmHg 73%
19:00 +5°C° 0 mm 0 mps 747 mmHg 79%
20:00 +5°C° 0 mm 0 mps 747 mmHg 80%
21:00 +4°C° 0 mm 0 mps 747 mmHg 81%
22:00 +5°C° 0 mm 1 mps 747 mmHg 82%
23:00 +5°C° 0 mm 1 mps 747 mmHg 81%

Day after tomorrow, 2 March, Tuesday

Time Temperature Precipitation Wind Pressure Humidity
00:00 +5°C° 0 mm 1 mps 747 mmHg 81%
01:00 +4°C° 0 mm 1 mps 747 mmHg 81%
02:00 +4°C° 0 mm 1 mps 747 mmHg 80%
03:00 +4°C° 0 mm 1 mps 747 mmHg 80%
04:00 +4°C° 0 mm 1 mps 746 mmHg 80%
05:00 +4°C° 0 mm 1 mps 746 mmHg 79%
06:00 +4°C° 0 mm 1 mps 746 mmHg 79%
07:00 +3°C° 0 mm 1 mps 746 mmHg 79%
08:00 +5°C° 0 mm 1 mps 747 mmHg 72%
09:00 +8°C° 0 mm 1 mps 747 mmHg 65%
10:00 +10°C° 0 mm 1 mps 747 mmHg 58%
11:00 +11°C° 0 mm 1 mps 747 mmHg 55%
12:00 +12°C° 0 mm 1 mps 747 mmHg 52%
13:00 +13°C° 0 mm 1 mps 747 mmHg 49%
14:00 +13°C° 0 mm 1 mps 746 mmHg 51%
15:00 +13°C° 0 mm 1 mps 746 mmHg 53%
16:00 +13°C° 0 mm 1 mps 746 mmHg 54%
17:00 +10°C° 0 mm 0 mps 746 mmHg 60%
18:00 +8°C° 0 mm 0 mps 746 mmHg 66%
19:00 +7°C° 0 mm 0 mps 746 mmHg 72%
20:00 +6°C° 0 mm 0 mps 746 mmHg 74%
21:00 +6°C° 0 mm 0 mps 746 mmHg 76%
22:00 +6°C° 0 mm 1 mps 746 mmHg 77%
23:00 +6°C° 0 mm 1 mps 746 mmHg 78%

3 March, Wednesday

Time Temperature Precipitation Wind Pressure Humidity
00:00 +5°C° 0 mm 0 mps 746 mmHg 79%
01:00 +4°C° 0 mm 0 mps 745 mmHg 80%
02:00 +4°C° 0 mm 0 mps 745 mmHg 80%
03:00 +4°C° 0 mm 0 mps 745 mmHg 80%
04:00 +3°C° 0 mm 0 mps 745 mmHg 81%
05:00 +4°C° 0 mm 1 mps 745 mmHg 81%
06:00 +4°C° 0 mm 1 mps 745 mmHg 81%
07:00 +4°C° 0 mm 1 mps 744 mmHg 81%
08:00 +6°C° 0 mm 1 mps 745 mmHg 74%
09:00 +7°C° 0 mm 0 mps 745 mmHg 67%
10:00 +9°C° 0 mm 0 mps 745 mmHg 61%
11:00 +10°C° 0 mm 0 mps 744 mmHg 57%
12:00 +11°C° 0 mm 0 mps 744 mmHg 53%
13:00 +12°C° 0 mm 0 mps 744 mmHg 49%
14:00 +13°C° 0 mm 1 mps 743 mmHg 50%
15:00 +13°C° 0 mm 1 mps 743 mmHg 52%
16:00 +13°C° 0 mm 1 mps 742 mmHg 53%
17:00 +11°C° 0 mm 1 mps 742 mmHg 60%
18:00 +9°C° 0 mm 1 mps 741 mmHg 67%
19:00 +8°C° 0 mm 1 mps 741 mmHg 73%
20:00 +7°C° 0 mm 1 mps 741 mmHg 74%
21:00 +7°C° 0 mm 1 mps 741 mmHg 76%
22:00 +6°C° 0 mm 1 mps 740 mmHg 77%
23:00 +5°C° 0 mm 2 mps 740 mmHg 77%

4 March, Thursday

Time Temperature Precipitation Wind Pressure Humidity
00:00 +4°C° 0 mm 2 mps 739 mmHg 78%
01:00 +4°C° 0 mm 2 mps 739 mmHg 79%
02:00 +4°C° 0 mm 2 mps 738 mmHg 79%
03:00 +4°C° 0 mm 2 mps 738 mmHg 80%
04:00 +3°C° 0 mm 2 mps 737 mmHg 81%
05:00 +3°C° 0 mm 2 mps 737 mmHg 82%
06:00 +4°C° 0 mm 2 mps 736 mmHg 82%
07:00 +4°C° 0 mm 2 mps 736 mmHg 83%
08:00 +4°C° 0 mm 3 mps 736 mmHg 78%
09:00 +7°C° 0 mm 3 mps 735 mmHg 73%
10:00 +8°C° 0 mm 3 mps 735 mmHg 68%
11:00 +9°C° 0.1 mm 3 mps 735 mmHg 69%
12:00 +9°C° 0.1 mm 3 mps 734 mmHg 69%
13:00 +8°C° 0.1 mm 4 mps 734 mmHg 70%
14:00 +8°C° 0.1 mm 4 mps 733 mmHg 72%
15:00 +8°C° 0.1 mm 4 mps 733 mmHg 75%
16:00 +7°C° 0.1 mm 4 mps 732 mmHg 78%
17:00 +7°C° 0.1 mm 4 mps 732 mmHg 80%
18:00 +6°C° 0.1 mm 4 mps 732 mmHg 82%
19:00 +6°C° 0.1 mm 4 mps 731 mmHg 84%
20:00 +5°C° 0.1 mm 4 mps 731 mmHg 85%
21:00 +5°C° 0.1 mm 4 mps 731 mmHg 86%
22:00 +5°C° 0.1 mm 4 mps 731 mmHg 87%
23:00 +5°C° 0.3 mm 4 mps 731 mmHg 88%

5 March, Friday

Time Temperature Precipitation Wind Pressure Humidity
00:00 +5°C° 0.3 mm 5 mps 731 mmHg 89%
01:00 +3°C° 0.3 mm 5 mps 731 mmHg 90%
02:00 +3°C° 0.1 mm 5 mps 731 mmHg 87%
03:00 +2°C° 0.1 mm 6 mps 731 mmHg 84%
04:00 +2°C° 0.1 mm 6 mps 731 mmHg 81%
05:00 +1°C° 0.1 mm 6 mps 731 mmHg 83%
06:00 -1°C° 0.1 mm 6 mps 732 mmHg 86%
07:00 -2°C° 0.1 mm 6 mps 733 mmHg 88%
08:00 -2°C° 0.5 mm 6 mps 733 mmHg 88%
09:00 -3°C° 0.5 mm 6 mps 734 mmHg 87%
10:00 -3°C° 0.5 mm 6 mps 735 mmHg 87%
11:00 -2°C° 0.4 mm 5 mps 736 mmHg 84%
12:00 -1°C° 0.4 mm 5 mps 737 mmHg 80%
13:00 -1°C° 0.4 mm 5 mps 737 mmHg 77%
14:00 -1°C° 0.2 mm 5 mps 738 mmHg 74%
15:00 -1°C° 0.2 mm 4 mps 738 mmHg 70%
16:00 -1°C° 0.2 mm 4 mps 739 mmHg 67%
17:00 -2°C° 0.1 mm 4 mps 739 mmHg 71%
18:00 -2°C° 0.1 mm 3 mps 740 mmHg 76%
19:00 -2°C° 0.1 mm 2 mps 740 mmHg 80%
20:00 -4°C° 0.1 mm 3 mps 741 mmHg 80%
21:00 -4°C° 0.1 mm 3 mps 742 mmHg 81%
22:00 -5°C° 0.1 mm 3 mps 742 mmHg 81%
23:00 -4°C° 0 mm 2 mps 742 mmHg 82%
Show more